Details for Transavia (France) at LFRS




Go Back


Latest METAR
Local Time

LFRS 220830Z AUTO 16007KT 130V190 CAVOK 14/11 Q1022 NOSIG
22/09/2018, 10:52:05

Description
Results
Transavia (France) Logo
Number of Pilots based at LFRS
0 Pilots Based here
Number of Transavia (France) Flights Departed from LFRS
0 Flights Departed
Number of Transavia (France) Flights Arrived at LFRS
0 Flights Arrived
Number of Transavia (France) Schedules Departing from LFRS
24 Schedules
Number of Transavia (France) Schedules Arriving at LFRS
25 Schedules
Number of Transavia (France) Schedules Departing from LFRS availible today
4 Schedules Today
Number of Transavia (France) Schedules Arriving at LFRS availible today
4 Schedules Today
Average Landing Rate at LFRS
-276 fpm
Transavia (France) Average Landing Rate at LFRS
0 fpm
Total Fuel Purchased at LFRS by Transavia (France)
0.00 kgs / 0.00 lbs

Pilots Based at LFRS


Pilot ID
Pilot Name
Pilot Rank
No. of Flights
No. of Flying Hours
There are no pilots assigned to this hub!   Will you be the first?
Content